Location: Gleizolles
(44.4833°N, 6.7667°E)
Time: 12:14:45
(UTC+00:00)

A-11 Canister half - Pass Details

Date: 15 June 2024
Orbit: 1515 x 1684 km, 47.2° (Epoch: 24 July)

Event Time Altitude Azimuth Distance (km) Brightness Sun altitude
Rises 21:42:58 0° 270° (W) 4,894 12.0 -17.6°
Reaches altitude 10° 21:46:10 10° 272° (W) 3,888 11.5 -17.8°
Maximum altitude 21:56:07 76° 358° (N) 1,648 9.2 -18.6°
Drops below altitude 10° 22:05:42 10° 85° (E) 3,753 10.9 -19.2°
Sets 22:08:44 0° 87° (E) 4,717 11.4 -19.4°
